Temp
20 20 21 21 21 22 22 23 22 22 23 23 23 23 23 22 22 23 23 23 22 22 21 21 21 21 21 22 22 22 22 22 22 22 22 22 22 22 22 23 22 22 21
21 20 21 20 20 22 22 22 23 23 23 23 23 23 23 22 23 23 23 23 22 22 22 21 21 21 21 22 22 22 22 22 22 21 20 19 21 22 22 22 22 22 22
21 20 20 20 21 21 22 22 23 23 23 24 23 22 22 22 23 23 23 24 22 22 21 21 21 21 21 21 22 22 22 22 22 21 21 19 20 19 21 21 21 21 21
20 20 20 20 21 21 22 23 23 23 23 23 23 23 22 22 23 23 23 24 23 22 22 21 21 21 21 21 21 22 22 21 22 21 21 21 21 19 19 21 20 21 21
21 20 20 21 22 22 22 22 23 23 23 23 23 23 22 23 23 23 23 22 22 22 22 22 21 21 21 21 21 21 21 22 21 22 21 21 20 20 19 20 20 22 22
22 22 22 22 22 23 23 23 23 23 24 23 23 23 23 23 23 23 23 23 22 22 22 22 21 21 20 21 21 21 21 21 22 21 21 21 21 20 19 18 19 20 23
23 22 22 22 22 22 23 23 23 23 24 23 23 23 23 23 23 23 23 23 23 22 22 22 22 21 21 21 21 21 21 21 22 22 22 22 22 21 21 20 19 18 21
23 23 23 23 23 23 23 23 24 24 24 23 23 23 23 23 24 24 23 24 24 24 23 22 22 22 21 21 21 21 21 21 22 22 22 22 23 22 22 22 20 18 19
25 24 24 24 24 24 25 25 24 24 24 24 24 24 24 23 24 24 24 24 24 24 24 23 23 22 21 21 21 21 21 21 22 22 22 22 23 23 22 22 21 21 19
26 25 24 24 25 26 26 25 25 25 25 24 24 24 24 24 23 25 24 24 24 24 24 23 23 23 22 22 21 21 21 21 21 22 22 22 23 23 23 22 22 21 21
26 25 25 25 27 27 27 25 25 25 24 24 24 24 25 24 24 23 23 23 23 23 24 23 23 23 23 22 22 22 22 21 22 22 22 22 23 23 23 23 23 21 21
26 25 25 25 25 25 26 25 25 25 25 25 24 24 24 24 23 23 23 23 23 22 22 22 22 22 22 22 22 22 22 22 22 22 22 22 23 23 23 23 23 23 22
24 24 22 24 23 24 25 26 25 25 25 24 24 24 23 23 23 23 23 23 22 22 22 22 22 22 22 22 22 22 22 22 22 22 22 22 22 22 23 22 22 22 22
24 22 22 21 22 23 22 24 25 24 24 24 24 23 23 23 22 22 22 22 21 21 21 21 21 22 22 21 22 22 22 22 22 22 22 22 22 22 22 22 22 22 22
22 23 21 19 20 21 23 23 23 23 23 24 23 22 22 21 21 21 20 20 20 20 20 20 21 21 20 20 21 21 21 21 21 21 21 21 21 21 21 21 21 21 20
21 21 21 20 20 21 23 24 23 23 23 23 22 21 21 20 20 20 20 19 19 19 19 19 19 19 19 19 19 20 20 21 21 21 21 21 21 21 21 21 21 21 21
21 21 21 20 20 20 19 19 23 23 22 22 21 21 20 20 19 19 19 19 18 18 18 18 18 18 18 18 18 19 19 19 19 19 20 20 20 20 20 20 20 20 20
21 20 20 18 18 20 20 20 20 21 22 21 20 20 19 19 19 18 18 17 17 17 17 17 17 18 17 17 18 18 18 18 18 18 18 18 19 18 19 19 19 19 20
20 20 19 18 18 21 21 19 19 20 20 19 19 19 18 18 18 17 16 16 16 16 16 16 16 16 16 16 16 17 17 17 17 17 16 17 17 16 17 17 17 18 19
20 19 19 19 19 18 19 18 19 19 19 19 18 18 18 17 17 16 16 16 16 16 16 16 16 15 15 15 15 14 15 15 15 16 15 15 15 16 16 16 16 16 17
20 20 19 19 19 18 19 18 18 18 18 18 18 17 17 16 16 16 16 16 15 16 15 15 14 14 14 14 14 14 14 13 13 14 15 14 14 15 15 15 16 16 16
19 18 18 18 19 20 18 17 17 18 17 17 17 16 16 15 15 16 15 15 15 15 15 14 13 13 13 13 13 13 13 12 12 12 13 13 13 14 15 15 15 15 15
18 18 18 17 17 18 18 17 17 17 16 16 16 15 15 15 15 15 15 15 15 14 14 14 13 13 13 12 12 12 11 11 11 12 12 12 12 13 13 13 13 14 14
17 17 17 16 15 17 18 18 16 16 16 15 15 15 15 15 15 15 15 15 15 14 14 13 13 12 11 10 10 9 9 10 12 12 12 12 11 10 11 12 12 12 12
16 16 16 16 15 17 17 16 16 15 15 15 15 15 15 15 15 15 15 15 15 14 14 13 12 11 10 8 7 8 9 10 10 10 9 10 8 8 8 8 8 9 9
16 16 16 16 16 16 16 16 16 15 15 15 15 15 15 15 15 15 15 15 15 14 14 13 12 11 9 8 7 8 8 9 9 8 8 8 7 7 7 7 7 7 7
Height
781 783 786 786 788 791 795 797 802 806 807 810 812 813 813 816 817 818 819 822 822 824 825 826 828 829 830 832 831 829 829 829 828 827 827 826 827 828 830 831 833 835 838
782 782 784 787 788 790 792 796 798 802 805 807 809 811 812 814 815 816 817 818 819 821 823 825 827 827 829 830 829 829 828 827 827 827 827 830 830 828 828 829 830 833 836
780 782 784 787 788 789 791 794 796 799 802 805 809 811 813 813 812 813 812 815 816 818 820 822 825 826 827 828 827 827 827 827 827 827 827 830 832 829 827 827 830 832 834
780 780 782 784 787 789 791 792 794 797 801 804 807 808 810 811 810 811 810 812 814 817 817 820 821 823 825 825 826 826 825 826 826 826 826 826 827 830 831 827 828 829 830
774 778 780 781 784 787 788 791 794 797 800 802 804 806 808 810 810 809 809 811 812 814 815 817 819 821 822 822 823 824 824 825 824 825 825 826 827 827 828 829 827 827 827
772 772 776 779 781 784 787 790 793 795 797 799 802 804 806 808 808 808 809 810 810 811 811 813 815 818 819 820 821 823 824 824 824 824 824 825 826 826 827 828 826 826 825
771 772 773 776 779 782 786 789 791 793 794 797 800 801 803 805 806 807 807 807 807 807 808 809 811 813 815 816 818 820 821 821 822 823 823 824 823 825 825 826 827 827 825
767 770 769 773 776 780 783 786 787 789 792 796 798 800 801 803 803 804 804 804 803 803 804 806 807 809 812 814 816 817 818 819 820 821 821 823 823 823 825 825 826 827 825
762 764 766 768 772 776 778 781 783 787 791 795 797 798 799 801 803 802 800 801 801 801 802 803 804 806 808 811 813 814 815 816 817 818 819 820 821 821 822 822 823 826 828
756 760 763 765 770 772 775 779 782 786 790 793 795 797 799 799 800 798 799 800 800 799 800 801 802 805 807 809 811 812 812 813 814 815 817 817 818 819 819 820 821 822 823
752 756 759 762 765 770 773 778 782 786 790 793 795 796 797 798 800 800 800 800 800 800 800 799 800 802 804 806 808 809 810 810 811 812 813 814 815 815 816 817 816 817 818
746 750 755 761 764 767 770 774 780 785 788 790 794 795 796 797 799 801 801 801 801 800 800 800 800 802 803 804 804 805 806 806 807 808 810 810 810 810 812 813 812 813 813
746 754 757 758 761 765 766 770 778 782 785 789 791 794 796 798 800 801 801 802 802 802 801 801 800 801 802 802 802 802 803 803 803 804 805 805 806 806 807 808 808 808 808
747 752 757 760 761 764 769 771 775 781 785 788 790 793 796 799 801 802 802 803 803 804 803 802 802 801 802 802 801 801 801 801 801 801 802 803 803 803 803 803 804 803 802
749 747 753 758 762 762 766 774 775 780 784 788 791 795 797 799 801 802 802 803 803 803 803 803 802 802 802 801 800 800 800 801 801 801 800 801 801 800 800 799 798 798 798
751 747 749 756 766 767 765 765 773 778 784 790 794 797 799 800 801 802 802 803 804 803 803 802 803 802 802 801 800 799 799 800 800 799 800 799 799 798 797 796 795 795 794
749 753 752 752 757 766 775 785 772 774 782 789 794 798 799 801 802 802 802 803 802 802 803 802 803 803 802 801 800 799 799 798 798 798 798 797 796 795 794 792 792 791 790
743 752 755 758 765 767 771 793 795 790 785 788 793 797 799 800 800 802 802 802 803 802 801 801 801 801 800 800 799 798 797 796 796 795 795 794 793 791 790 788 787 786 785
739 746 749 754 760 763 767 795 798 797 794 792 796 798 800 800 799 800 800 802 802 802 801 800 799 800 800 800 799 798 797 795 794 793 792 791 789 789 787 785 784 782 781
739 741 748 754 755 766 766 788 795 795 795 796 796 796 797 798 799 800 800 800 801 801 800 799 799 799 800 800 800 798 796 794 793 793 792 790 789 787 786 784 782 780 778
739 741 746 752 756 762 771 784 787 791 794 797 797 797 798 799 798 800 803 800 801 802 802 802 801 799 799 798 796 796 795 793 791 790 788 787 785 783 782 781 779 777 775
741 745 745 749 748 759 773 780 785 791 795 799 799 796 800 800 797 798 800 799 799 801 802 801 802 803 800 798 795 792 791 790 788 786 784 782 779 777 774 773 772 771 769
746 749 743 749 752 758 770 779 785 791 795 797 798 799 798 799 796 798 799 800 799 799 799 799 800 801 799 797 795 791 787 786 785 784 782 779 777 775 772 771 770 768 766
744 746 749 753 760 767 776 782 789 794 796 797 795 797 797 795 795 797 799 801 801 802 803 801 799 799 797 795 794 790 787 785 785 784 781 778 776 774 773 769 767 765 763
742 745 754 759 765 773 779 785 791 795 796 793 794 793 792 794 794 797 798 798 801 801 803 803 801 798 796 794 794 793 788 785 783 782 781 778 775 773 772 769 767 765 763
744 748 756 762 769 775 780 785 788 789 791 790 788 790 789 791 793 797 796 799 801 800 801 802 802 800 797 795 792 792 790 786 783 782 783 783 780 778 775 771 769 766 763
Wind_Speed
5 12 13 11 17 16 25 26 23 25 21 22 23 23 23 20 19 20 17 15 14 14 15 12 11 11 12 9 6 3 3 4 4 0 2 1 1 7 11 12 11 15 17
6 10 15 14 19 20 21 22 22 26 23 25 26 24 19 19 19 17 19 16 13 14 14 11 11 11 11 11 9 5 4 2 1 1 3 2 2 4 9 13 11 15 16
11 8 11 18 18 22 23 17 23 25 25 26 24 19 15 16 14 18 15 13 10 14 14 10 12 11 11 11 11 9 6 4 3 3 1 2 2 1 4 10 13 15 19
8 6 8 14 22 20 21 23 21 28 27 27 25 22 20 15 16 16 14 10 12 12 11 13 13 13 13 11 12 10 9 7 6 3 7 3 2 2 1 6 10 10 15
11 11 13 17 22 18 18 21 22 22 22 23 24 23 19 17 12 11 11 11 9 12 12 11 12 14 14 13 13 11 11 8 9 9 4 2 3 4 2 2 4 10 14
8 9 15 18 20 20 20 22 21 21 21 21 22 21 20 17 14 14 12 12 12 13 13 14 14 14 15 16 17 14 14 13 11 9 9 7 4 4 4 1 4 5 7
7 7 8 13 17 20 23 23 22 23 21 21 20 19 18 16 15 14 14 13 12 12 12 13 15 16 16 16 16 15 15 14 14 13 11 10 9 7 6 3 1 3 6
8 9 11 16 19 19 22 20 17 19 20 20 19 19 18 15 15 14 14 13 12 10 9 10 12 13 14 14 15 16 16 15 15 12 10 9 10 10 9 5 3 2 2
12 13 11 17 19 20 22 20 19 19 20 21 18 19 19 19 15 13 12 11 11 9 7 8 8 10 11 13 13 14 16 16 15 16 14 13 12 11 12 13 12 5 2
13 10 10 16 21 23 22 20 20 19 20 19 18 18 16 11 9 8 7 6 4 3 4 9 8 7 8 11 12 14 13 14 15 14 15 14 13 12 12 14 15 15 12
13 11 11 18 25 23 21 19 18 18 18 17 17 12 8 8 4 2 1 1 0 1 2 4 7 8 9 9 11 13 13 13 14 15 15 16 15 15 14 13 12 14 15
13 12 13 17 21 26 24 24 22 18 12 7 12 8 7 5 4 5 5 4 3 3 2 1 4 7 9 9 10 12 13 14 15 16 16 18 17 17 16 15 15 16 17
8 5 6 14 20 26 28 26 21 17 8 13 14 10 9 10 9 8 7 6 6 7 8 5 3 1 3 5 7 10 12 13 14 15 17 18 15 16 16 16 17 18 18
10 8 7 6 16 19 10 21 18 15 16 16 16 14 13 11 9 8 7 5 5 5 5 5 5 6 5 6 6 4 5 8 11 12 13 14 15 15 16 16 16 16 17
7 14 11 8 12 18 21 16 17 18 18 18 17 15 12 10 7 5 4 4 3 3 4 3 3 3 3 4 4 4 5 5 3 3 5 6 7 8 9 11 14 14 14
5 10 13 13 9 5 14 21 20 21 19 16 14 11 9 7 6 4 4 4 5 6 5 6 5 4 4 4 4 5 5 6 6 7 8 9 10 12 12 13 14 14 13
7 7 10 15 19 13 9 3 28 27 22 16 12 9 8 7 6 4 3 3 4 4 5 5 5 4 5 6 7 6 5 5 6 7 9 11 11 12 14 14 13 14 15
11 10 14 21 17 27 9 2 9 12 17 15 13 11 9 6 3 0 2 3 5 6 7 6 5 5 5 7 6 6 6 5 6 7 10 11 10 10 12 13 12 12 11
13 18 23 27 27 24 19 23 15 13 13 15 14 10 6 3 1 2 4 4 6 6 7 7 4 4 7 6 6 6 7 7 6 7 7 7 6 3 7 7 9 12 12
19 24 29 29 32 33 40 32 26 20 18 15 13 8 5 3 2 3 3 4 6 7 7 9 7 7 7 7 10 11 9 8 8 8 7 7 6 9 11 13 14 17 19
24 24 21 27 31 29 30 25 23 21 18 14 10 7 5 7 5 5 3 4 8 9 10 10 9 8 8 10 11 13 15 13 11 11 13 13 14 16 17 16 16 17 18
14 18 15 16 24 28 26 23 21 18 15 12 10 10 9 7 7 6 4 5 5 4 6 7 8 9 10 12 14 15 16 15 14 14 15 16 15 17 17 15 12 12 13
14 17 20 20 23 30 27 23 20 18 17 15 12 11 11 7 7 6 5 5 5 4 5 6 6 8 12 14 15 14 13 12 13 13 12 12 12 11 9 8 8 9 11
16 20 21 21 21 28 27 24 23 20 19 16 14 13 11 9 8 6 3 4 5 5 4 5 5 7 10 15 17 15 15 14 12 12 11 11 12 13 12 12 13 12 13
17 22 20 19 21 25 21 22 22 21 17 15 13 10 11 10 8 5 5 5 2 1 1 3 6 8 9 13 13 12 14 13 11 10 13 17 18 18 19 19 19 18 19
20 22 22 24 23 21 21 18 17 17 17 15 14 13 11 8 8 6 6 4 2 1 4 3 4 6 7 9 9 8 13 12 11 14 15 16 16 17 17 18 18 20 21
Wind_Direction
142 167 181 188 202 193 196 203 207 212 222 225 219 227 234 241 246 244 259 250 232 239 241 231 226 224 224 230 250 289 306 287 281 103 119 1 284 221 213 201 222 218 217
191 180 184 186 190 193 200 207 209 220 225 221 222 229 238 244 250 253 254 252 233 237 234 238 222 218 228 231 240 257 266 273 1 169 136 53 322 269 225 230 238 230 224
198 194 177 183 183 206 204 209 213 210 220 226 231 229 239 245 249 251 248 245 240 233 223 242 226 222 228 230 230 240 259 253 257 263 124 113 216 256 255 246 235 233 233
193 196 191 187 202 216 214 214 215 222 225 231 226 227 231 235 244 256 260 245 220 220 236 237 230 228 235 237 236 238 248 255 258 243 224 217 173 170 293 249 231 240 239
190 185 198 205 209 220 217 214 213 214 220 213 220 228 235 243 247 267 269 253 241 238 239 237 240 236 234 242 245 243 242 248 256 225 206 227 223 224 187 223 233 239 233
219 177 195 207 222 224 226 217 216 221 216 219 225 232 238 244 253 259 268 260 253 249 248 246 240 242 244 246 244 247 257 253 265 260 234 221 208 218 195 222 231 232 242
197 187 180 194 215 216 216 215 218 218 217 221 228 232 240 245 253 261 263 264 261 254 252 245 239 241 244 243 242 244 249 242 253 247 247 245 253 251 245 218 220 259 249
184 206 195 199 207 207 207 208 214 220 218 222 227 233 238 243 246 262 264 273 270 271 269 258 247 243 242 238 237 241 244 249 251 262 251 272 262 256 242 236 193 335 292
186 203 195 197 200 207 209 210 219 221 223 225 229 237 239 246 257 265 273 280 261 264 247 246 248 242 233 231 235 241 244 243 247 252 261 264 261 260 261 252 246 199 274
188 195 197 189 203 211 214 214 217 219 221 226 234 243 254 261 268 271 280 275 286 292 283 223 228 233 228 225 229 239 244 240 239 248 256 257 264 274 273 263 255 248 238
186 191 190 191 197 202 209 213 217 216 222 226 228 240 256 265 274 303 1 169 172 13 329 199 222 236 237 233 238 243 244 244 248 251 253 259 264 270 267 278 273 258 247
184 188 176 179 183 194 206 216 213 206 212 218 218 211 182 165 153 114 99 85 85 88 93 188 235 244 247 247 250 253 251 251 254 259 261 262 266 272 265 265 266 268 261
169 156 150 181 176 187 198 203 203 197 194 172 158 147 148 144 133 121 110 105 91 81 70 78 78 60 277 269 268 266 264 260 260 263 265 269 270 270 271 273 272 270 269
158 154 158 167 157 171 175 185 187 185 163 160 157 145 142 140 134 122 108 95 81 62 60 58 49 43 49 56 44 0 282 277 268 267 269 272 274 276 280 278 277 280 276
146 160 161 153 157 154 141 161 151 155 161 152 145 141 137 135 126 110 97 85 65 41 22 10 12 31 44 0 352 3 19 18 349 312 297 291 291 291 294 295 295 291 287
160 172 154 140 135 134 166 151 150 152 155 149 144 142 141 135 124 105 88 75 69 63 54 46 35 39 57 30 5 343 326 304 301 298 296 296 298 301 302 299 297 300 299
163 173 164 144 126 83 26 328 164 165 159 155 152 153 146 133 115 102 79 49 42 27 25 27 22 21 5 357 357 344 329 317 310 301 294 292 292 297 297 294 292 291 291
135 127 124 102 91 125 139 288 208 157 149 153 159 158 154 146 136 64 11 29 12 4 353 336 319 328 353 353 355 349 348 338 324 308 293 289 297 298 303 305 300 296 295
144 146 138 137 146 141 170 222 211 188 171 158 159 162 168 165 138 93 82 37 16 24 14 11 19 37 43 42 25 18 12 355 353 353 353 329 287 307 301 321 319 308 299
143 135 141 150 148 165 171 196 195 185 174 173 169 172 178 180 150 110 81 50 11 0 14 52 72 98 74 40 13 13 4 0 352 342 343 339 330 307 315 322 321 314 308
159 156 153 165 162 160 169 181 182 183 178 175 173 171 160 149 137 123 84 52 78 65 68 70 76 73 39 13 359 352 346 339 329 328 321 317 309 302 300 298 296 298 302
162 163 148 144 147 163 171 165 172 177 175 181 178 162 167 162 135 122 99 86 65 31 35 57 61 34 18 358 351 341 335 331 327 329 327 325 325 316 309 307 311 311 310
130 158 139 124 131 157 177 163 173 176 181 185 181 169 158 147 127 124 107 98 63 80 91 76 50 15 3 350 343 350 1 7 359 0 9 9 9 15 23 23 13 1 359
128 129 127 127 130 154 169 178 176 183 187 181 167 167 160 151 141 133 138 126 102 94 89 79 49 15 3 1 0 11 14 18 15 8 9 2 17 26 23 18 13 14 2
117 123 127 128 139 159 166 167 176 183 181 168 164 167 170 172 164 152 126 137 133 64 124 74 46 24 23 13 4 14 16 16 23 22 26 24 22 20 15 15 17 16 14
133 132 139 144 154 161 163 170 180 180 170 165 156 163 159 152 153 160 152 163 205 131 121 88 38 35 32 19 23 37 37 42 48 50 38 28 21 18 10 7 9 13 11